Home   Weather   Bad Kissingen   Past weeks
Flag for Germany

Past Weather in Bad Kissingen, Bavaria, Germany — Yesterday and Last 2 Weeks

Now
57 °F

Scattered clouds.


Feels Like: 56 °F
Forecast: 62 / 38 °F
Wind: 5 mph from Northwest

Location: Illesheim

Current Time: Sep 19, 2019 at 1:35:57 pm

Latest Report: Sep 19, 2019 at 12:56 pm


Visibility: N/A

Pressure: 30.41 "Hg

Humidity: 42%

Dew Point: 34 °F

Location of Bad KissingenLocation

Past Weather in Bad Kissingen — Graph

°F

Bad Kissingen Temperature Yesterday

Maximum temperature yesterday: 63 °F (at 3:56 pm)
Minimum temperature yesterday: 37 °F (at 5:56 am)
Average temperature yesterday: 52 °F

High & Low Weather Summary for the Past Weeks

 TemperatureHumidityPressure
High80 °F (Sep 4, 3:56 pm)100% (Sep 6, 4:56 am)30.52 "Hg (Sep 6, 4:56 am)
Low32 °F (Sep 19, 6:56 am)29% (Sep 4, 3:56 pm)29.94 "Hg (Sep 4, 11:56 pm)
Average57 °F75%30.19 "Hg
* Reported Sep 4 11:56 am — Sep 19 11:56 am, Bad Kissingen. Weather by CustomWeather, © 2019

Note: Actual official high and low records may vary slightly from our data, if they occured in-between our weather recording intervals... More about our weather records

Advertising

Bad Kissingen Weather History for the Previous 24 Hours

Scroll right to see more
 ConditionsComfort  
Time TempWeatherWind HumidityBarometerVisibility
11:56 am
Thu, Sep 19
55 °FPartly sunny.6 mph50%30.42 "HgN/A
10:56 am54 °FSunny.8 mph58%30.42 "HgN/A
9:56 am50 °FSunny.8 mph69%30.42 "HgN/A
8:56 am43 °FSunny.No wind78%30.40 "HgN/A
7:56 am35 °FSunny.No wind86%30.40 "HgN/A
6:56 am32 °FClear.No wind91%30.37 "HgN/A
5:56 am34 °FClear.No wind84%30.35 "HgN/A
4:56 am34 °FClear.No wind87%30.35 "HgN/A
3:56 am36 °FClear.No wind87%30.35 "HgN/A
2:56 am36 °FClear.No wind79%30.34 "HgN/A
12:56 am37 °FClear.No wind75%30.33 "HgN/A
11:56 pm
Wed, Sep 18
39 °FClear.No wind73%30.33 "HgN/A
10:56 pm41 °FClear.No wind70%30.33 "HgN/A
9:56 pm43 °FClear.No wind71%30.32 "HgN/A
8:56 pm48 °FClear.No wind58%30.30 "HgN/A
7:56 pm55 °FClear.3 mph47%30.28 "HgN/A
6:56 pm59 °FSunny.5 mph42%30.27 "HgN/A
5:56 pm61 °FSunny.5 mph38%30.26 "HgN/A
4:56 pm62 °FSunny.3 mph39%30.26 "HgN/A
3:56 pm63 °FPassing clouds.3 mph39%30.25 "HgN/A
2:56 pm60 °FSunny.3 mph40%30.27 "HgN/A
1:56 pm61 °FScattered clouds.3 mph45%30.28 "HgN/A
Weather by CustomWeather, © 2019

See weather overview